Tracking 31027 objects as of 19-Jul-2025
HD Live streaming from Space Station
objects crossing your sky now

STARLINK-31929

Track STARLINK-31929 now!
10-day predictions
STARLINK-31929 is classified as:


NORAD ID: 59836
Int'l Code: 2024-097B
Perigee: 489.2 km
Apogee: 491.2 km
Inclination: 43.0 °
Period: 94.3 minutes
Semi major axis: 6861 km
RCS: Unknown
Launch date: May 23, 2024
Source: United States (US)
Launch site: AIR FORCE EASTERN TEST RANGE (AFETR)
Your satellite tracking list
COSMOS 1743
Track 1 satellite(s)




NASA's NSSDC Master Catalog

Two Line Element Set (TLE):
1 59836U 24097B   25199.60865023  .00001027  00000-0  46825-4 0  9998
2 59836  43.0020 156.6276 0001469 267.6421  92.4262 15.27583782 66086
Source of the keplerian elements: AFSPC